KB1YTR-1 Weather Reports


time (UTC)temp
C
wind
direction
speed
KPH
gust
KPH
rain 1hr
cm
rain 24hr
cm
rain mn
cm
humidity
%
barometer
mb
20260503004742 15 202 4.8 6.4 0.00 0.00 0.00 43 1007.9
20260503003447 15 273 1.6 9.7 0.00 0.00 0.00 43 1008.2
20260503002242 15 196 6.4 14.5 0.00 0.00 0.00 42 1008.1
20260503000752 15 163 3.2 6.4 0.00 0.00 0.00 41 1008.5
20260502235422 15 215 6.4 8.0 0.00 0.00 0.00 42 1008.6
20260502234202 15 278 4.8 6.4 0.00 0.00 0.00 41 1008.6
20260502232752 15 289 1.6 9.7 0.00 0.00 0.00 40 1008.8
20260502231432 15 175 1.6 14.5 0.00 0.00 0.00 39 1008.8
20260502230052 16 267 3.2 9.7 0.00 0.00 0.00 39 1009.0
20260502224812 16 212 12.9 24.1 0.00 0.00 0.00 38 1009.1
20260502223612 16 264 3.2 24.1 0.00 0.00 0.00 38 1009.3
20260502222327 16 245 6.4 14.5 0.00 0.00 0.00 36 1009.4
20260502220837 16 296 11.3 27.4 0.00 0.00 0.00 36 1009.5
20260502215449 16 149 1.6 9.7 0.00 0.00 0.00 37 1009.5
20260502214058 16 234 1.6 20.9 0.00 0.00 0.00 35 1009.6
20260502212647 16 183 1.6 9.7 0.00 0.00 0.00 36 1009.8
20260502211357 16 287 24.1 24.1 0.00 0.00 0.00 35 1009.9
20260502210141 16 239 8.0 17.7 0.00 0.00 0.00 35 1010.2
20260502204732 15 273 4.8 16.1 0.00 0.00 0.00 35 1010.1
20260502203242 15 283 14.5 16.1 0.00 0.00 0.00 35 1010.9
20260502201912 16 255 6.4 22.5 0.00 0.00 0.00 34 1011.0
20260502200456 15 225 3.2 17.7 0.00 0.00 0.00 35 1011.2
20260502195027 15 181 4.8 12.9 0.00 0.00 0.00 35 1011.5
20260502193632 15 196 6.4 22.5 0.00 0.00 0.00 34 1011.6
20260502192332 15 313 3.2 12.9 0.00 0.00 0.00 34 1012.0
20260502190942 14 214 11.3 14.5 0.00 0.00 0.00 36 1012.1
20260502185727 14 196 4.8 11.3 0.00 0.00 0.00 36 1012.3
20260502184347 15 193 9.7 9.7 0.00 0.00 0.00 33 1012.4
20260502182914 13 206 4.8 19.3 0.00 0.00 0.00 36 1012.8
20260502181657 12 278 9.7 12.9 0.00 0.00 0.00 34 1013.3
20260502180222 13 274 4.8 9.7 0.00 0.00 0.00 34 1013.6
20260502164222 11 297 4.8 22.5 0.00 0.00 0.00 35 1014.5
20260502162742 11 278 8.0 12.9 0.00 0.00 0.00 37 1014.6
20260502161432 11 320 6.4 6.4 0.00 0.00 0.00 37 1014.6
20260502152152 11 335 9.7 19.3 0.00 0.00 0.00 39 1015.8
20260502150822 10 286 8.0 9.7 0.00 0.00 0.00 38 1015.7
20260502130747 6 292 3.2 6.4 0.00 0.00 0.00 51 1016.5
20260502130357 6 292 3.2 6.4 0.00 0.00 0.00 51 1016.5
20260502123646 4 278 4.8 4.8 0.00 0.00 0.00 56 1016.3
20260502122432 3 279 6.4 6.4 0.00 0.00 0.00 57 1016.5
20260502121003 2 286 1.6 8.0 0.00 0.00 0.00 59 1016.5
20260502115702 2 264 4.8 6.4 0.00 0.00 0.00 59 1016.6
20260502114304 2 278 4.8 6.4 0.00 0.00 0.00 60 1016.7
20260502112947 1 271 3.2 6.4 0.00 0.00 0.00 62 1016.7
20260502111527 1 263 3.2 4.8 0.00 0.00 0.00 62 1016.8
20260502110313 1 266 3.2 3.2 0.00 0.00 0.00 63 1016.5
20260502110232 1 266 3.2 3.2 0.00 0.00 0.00 63 1016.5
20260502105012 1 259 1.6 3.2 0.00 0.00 0.00 62 1016.6
20260502103537 1 286 1.6 4.8 0.00 0.00 0.00 61 1016.4
20260502102242 1 0 0.0 1.6 0.00 0.00 0.00 62 1016.5
20260502101027 1 249 1.6 3.2 0.00 0.00 0.00 61 1016.6
20260502091342 2 0 0.0 3.2 0.00 0.00 0.00 59 1016.7
20260502071407 1 0 0.0 3.2 0.00 0.00 0.00 60 1017.5
20260502070137 1 0 0.0 1.6 0.00 0.00 0.00 60 1017.5
20260502064802 2 0 0.0 3.2 0.00 0.00 0.00 59 1017.6
20260502063444 1 0 0.0 1.6 0.00 0.00 0.00 59 1017.6
20260502062233 2 308 1.6 1.6 0.00 0.00 0.00 58 1017.4
20260502060907 1 0 0.0 1.6 0.00 0.00 0.00 59 1017.5
20260502055602 1 0 0.0 1.6 0.00 0.00 0.00 59 1017.7
20260502054344 1 281 1.6 1.6 0.00 0.00 0.00 58 1017.5
20260502053032 1 0 0.0 0.0 0.00 0.00 0.00 58 1017.8
20260502051611 1 0 0.0 0.0 0.00 0.00 0.00 59 1017.8
20260502050343 1 238 1.6 1.6 0.00 0.00 0.00 58 1017.7
20260502045102 1 0 0.0 0.0 0.00 0.00 0.00 59 1017.6
20260502043616 1 0 0.0 0.0 0.00 0.00 0.00 57 1017.7
20260502042352 1 0 0.0 1.6 0.00 0.00 0.00 58 1017.6
20260502041044 1 0 0.0 1.6 0.00 0.00 0.00 58 1017.6
20260502035545 1 0 0.0 0.0 0.00 0.00 0.00 59 1017.7
20260502034132 1 120 1.6 1.6 0.00 0.00 0.00 58 1017.6
20260502032752 2 0 1.6 1.6 0.00 0.00 0.00 54 1017.8
20260502031333 2 75 1.6 1.6 0.00 0.00 0.00 54 1017.8
20260502025931 2 308 1.6 1.6 0.00 0.00 0.00 56 1017.7
20260502025859 2 308 1.6 1.6 0.00 0.00 0.00 56 1017.7
20260502024610 2 0 0.0 1.6 0.00 0.00 0.00 58 1018.0
20260502023242 2 0 0.0 1.6 0.00 0.00 0.00 55 1017.7
20260502021743 3 0 0.0 1.6 0.00 0.00 0.00 54 1017.6
20260502020255 2 0 0.0 3.2 0.00 0.00 0.00 55 1017.7
20260502014845 2 121 3.2 3.2 0.00 0.00 0.00 57 1017.3
20260502013452 3 66 3.2 3.2 0.00 0.00 0.00 55 1017.4
20260502012027 3 0 0.0 3.2 0.00 0.00 0.00 55 1017.4
20260502010807 3 0 0.0 3.2 0.00 0.00 0.00 57 1017.3